Location: Seattle
(47.6064°N, 122.3308°W)
Time: 08:42:14
(UTC-07:00)

deb Explorer IX - Visible Passes

Search period start: 30 September 2022 00:00
Search period end: 10 October 2022 00:00
Orbit: 531 x 1065 km, 38.8° (Epoch: 29 September)

Date Brightness Start Highest point End Pass type
(mag) Time Alt. Az. Time Alt. Az. Time Alt. Az.
03 Oct ? 06:37:37 10° S 06:40:01 13° SSE 06:42:34 10° ESE visible
04 Oct ? 06:07:50 10° SSE 06:09:36 12° SSE 06:11:26 10° SE visible
05 Oct ? 05:38:32 10° SSE 05:39:11 10° SE 05:39:51 10° SE visible
07 Oct ? 06:19:53 10° SSW 06:23:25 22° SSE 06:27:20 10° ESE visible
08 Oct ? 05:49:58 11° SSW 05:52:58 21° SSE 05:56:34 10° ESE visible
09 Oct ? 05:21:11 17° S 05:22:30 19° SSE 05:25:48 10° ESE visible
